User: anonymous   Login
Location: Goodsell Observatory
(44.4617°N, 93.1522°W)
Time: 18:47:41
(UTC-05:00)
Language:

Hubble Space Telescope - Orbit

View from above orbital plane
View from above orbital plane
View from above satellite
View from above satellite

Ground track
Ground track

The orbit data is extracted from the following two-line orbital elements,

1 20580U 90037B   16238.90416071  .00000687  00000-0  31777-4 0  9992
2 20580  28.4695 158.2926 0002667 234.5783 201.9726 15.08463662245646
Epoch (UTC): 25 August 2016 21:41:59
Eccentricity: 0.0002667
inclination: 28.4695°
perigee height: 539 km
apogee height: 543 km
right ascension of ascending node: 158.2926°
argument of perigee: 234.5783°
revolutions per day: 15.08463662
mean anomaly at epoch: 201.9726°
orbit number at epoch: 24564

The dashed part of the orbit path shows where the satellite is in the earth's shadow,  

DLR